Weather in Kvartsitny

Russia / Republic of Karelia     61°29′52″N   35°02′50″E
temp.,
°C
wind,
m/s
gust,
m/s
humid.,
%
clouds,
%
prec.,
mm/h
press.,
hPa
HPBL,
m
1 august, sun
sun100:00+14sw499411 0.1 1000237
03:00+13sw499411 0.1 1001217
06:00+13sw49922 0.0 1002209
09:00+18sw577822 0.0 1003471
12:00+21sw465797 0.1 10021082
15:00+18wsw248495 1.0 1002100
18:00+17s2491100 6.6 1002114
21:00+16sw399511 6.6 1002342
2 august, mon
mon200:00+14ssw38935 0.0 1002169
03:00+14sw389519 0.0 1002200
06:00+14sw51097100 0.0 1003400
09:00+16sw588593 0.0 1005678
12:00+21sw475993 0.0 10041039
15:00+22ssw4756100 0.1 10041077
18:00+18s4980100 0.3 1003373
21:00+16s3690100 0.3 1002155
3 august, tue
tue300:00+15ene2397100 1.6 1000126
03:00+15ene3598100 18.7 998362
06:00+15nw3598100 5.4 996316
09:00+15wnw699681 6.9 997520
12:00+19w486697 0.1 999939
15:00+21wsw585289 0.4 10001434
18:00+20sw59577 0.0 10011102
21:00+16sw611730 0.0 1003507
4 august, wed
wed400:00+14wsw610885 0.0 1004465
03:00+11w610804 0.0 1007550
06:00+12w61082100 0.0 1009735
09:00+15wnw711570 0.0 10101156
12:00+17wnw69434 0.0 10121802
15:00+19nnw374364 0.0 10141595
18:00+15ne455961 0.0 1015512
21:00+13e336978 0.0 1017227
5 august, thu
thu500:00+13sse237023 0.0 1018186
03:00+10sse23825 0.0 1018109
06:00+11s368365 0.0 1018166
09:00+15s356076 0.0 1018350
12:00+16n1159100 0.0 101850
15:00+18ne445474 0.0 1017739
18:00+14ese247581 0.2 1017114
21:00+13n128632 1.4 101746